Regional Weather Roundup
Issued by NWS

Home | Current Version | Previous Version | Text Only | Print | Product List | Glossary On
Versions: 1 2 3 4 5 6 7 8 9 10 11 12 13 14 15 16 17 18 19 20 21 22 23 24 25 26 27 28 29 30 31 32 33 34 35 36 37 38 39 40 41 42 43 44 45 46 47 48 49 50
000
ASCA42 TJSJ 260211
RWRPR
PUERTO RICO/U.S. VIRGIN ISLANDS HOURLY WEATHER ROUNDUP
NATIONAL WEATHER SERVICE SAN JUAN PR
1000 PM AST THU DEC 25 2014

PRZ001-004-260300-
PUERTO RICO

CITY           SKY/WX    TMP DP  RH WIND       PRES   REMARKS
SAN JUAN LMM   PTCLDY    79  72  78 NE9       30.09R
PONCE          PTCLDY    73  66  78 CALM      30.01S
CEIBA          PTCLDY    79  70  73 NE9       30.11R
$$

PRZ006-007-260300-
U.S. VIRGIN ISLANDS

CITY           SKY/WX    TMP DP  RH WIND       PRES   REMARKS
$$

HOURLY WEATHER ROUNDUP FOR THE NEWS MEDIA

CITY           SKY/WX    TMP DP  RH WIND       PRES   REMARKS
MIAMI          CLOUDY    70  56  61 VRB3      30.18R
ORLANDO        CLEAR     57  49  74 N5        30.24R
NEW YORK       CLEAR     48  28  46 W16G23    30.06R
NEWARK         PTCLDY    44  31  60 W6        30.07R
CHICAGO        CLOUDY    40  34  79 S17G24    29.98F WCI  31
HARTFORD       CLEAR     45  30  55 W8        29.93R
BOSTON         CLEAR     46  30  53 W13G24    29.90R
DALLAS         PTCLDY    56  34  43 S12G23    29.93F
PHILADELPHIA   PTCLDY    46  30  53 W14       30.15R


USA.gov is the U.S. government's official web portal to all federal, state and local government web resources and services.